This demonstration page uses our WeatherBlox Daily Observations layout. Learn more.

Left ArrowRight Arrow

41.55636, -103.73856

Hourly Observations for August 16, 2022

Temp ( °F °C ) Dew Point ( °F °C ) Humidity (%) Winds ( mph kmh ) Pressure ( in mb ) Visibility ( mi km ) Precip ( " mm )
12:58 am 00:58 Clear 64 17.7 59 14.8 83 83 NE 3 6 30.00 1016 10 16 0.00 0.00
1:58 am 01:58 Clear 61 15.9 57 13.9 88 88 Calm 30.01 1016 10 16 0.00 0.00
2:58 am 02:58 Cloudy 60 15.3 56 13.1 87 87 WSW 5 7 30.00 1016 10 16 0.00 0.00
3:58 am 03:58 Cloudy 58 14.7 55 12.9 89 89 W 6 9 30.00 1016 10 16 0.00 0.00
4:58 am 04:58 Partly Cloudy 57 14 55 12.5 91 91 W 5 7 30.00 1016 10 16 0.00 0.00
5:58 am 05:58 Clear 60 15.4 57 13.8 90 90 NW 6 9 30.01 1016 10 16 0.00 0.00
6:58 am 06:58 Sunny 57 14 55 12.5 91 91 NNW 3 6 30.03 1017 10 16 0.00 0.00
7:58 am 07:58 Cloudy 62 16.4 57 14 86 86 WSW 3 6 30.06 1018 10 16 0.00 0.00
8:58 am 08:58 Cloudy 65 18.3 60 15.5 84 84 Calm 30.07 1018 10 16 0.00 0.00
9:58 am 09:58 Mostly Cloudy 69 20.8 59 14.9 69 69 ENE 8 13 30.05 1018 10 16 0.00 0.00
10:58 am 10:58 Mostly Sunny 75 23.9 57 13.7 53 53 ENE 10 17 30.04 1017 10 16 0.00 0.00
11:58 am 11:58 Mostly Sunny 75 24.1 55 13 50 50 ENE 12 19 30.05 1018 10 16 0.00 0.00
12:58 pm 12:58 Sunny 78 25.4 53 11.5 42 42 ENE 8 13 30.04 1017 10 16 0.00 0.00
1:58 pm 13:58 undefined 80 26.7 51 10.8 37 37 ENE 9 15 30.03 1017 10 16 0.00 0.00
2:58 pm 14:58 Sunny 82 27.8 44 6.5 26 26 Calm 30.01 1016 10 16 0.00 0.00
3:58 pm 15:58 Mostly Sunny 85 29.3 48 8.9 28 28 NE 8 13 30.00 1016 10 16 0.00 0.00
4:58 pm 16:58 Mostly Sunny 83 28.5 42 5.3 23 23 E 8 13 29.99 1016 10 16 0.00 0.00
5:58 pm 17:58 Sunny 82 27.9 42 5.4 24 24 E 9 15 29.99 1016 10 16 0.00 0.00
6:58 pm 18:58 Sunny 80 26.6 44 6.6 28 28 E 8 13 30.01 1016 10 16 0.00 0.00
7:58 pm 19:58 Clear 73 22.6 45 7.2 37 37 ESE 9 15 30.01 1016 10 16 0.00 0.00
8:58 pm 20:58 Clear 69 20.6 50 9.8 50 50 SE 12 19 30.04 1017 10 16 0.00 0.00
9:58 pm 21:58 Clear 69 20.4 54 12.4 60 60 S 14 22 30.05 1018 10 16 0.00 0.00
10:58 pm 22:58 Clear 65 18.5 55 12.7 69 69 S 13 20 30.05 1018 10 16 0.00 0.00
11:58 pm 23:58 Clear 64 17.6 55 12.9 74 74 S 15 24 30.05 1018 10 16 0.00 0.00

Powered by AerisWeather